W9HJD-13 Weather Reports


Display with metric or nautical units.
time (UTC)temp
F
wind
direction
speed
MPH
gust
MPH
rain 1hr
in
rain 24hr
in
rain mn
in
humidity
%
barometer
mb
20260906073504 0 225 0.0 3.0 0.00 0.00 0.00 99 986.6
20260906073003 0 180 1.0 3.0 0.00 0.00 0.00 99 986.6
20260906072003 0 225 1.0 2.0 0.00 0.00 0.00 99 986.6
20260906071502 0 270 1.0 2.0 0.00 0.00 0.00 99 986.6
20260906071002 0 225 0.0 2.0 0.00 0.00 0.00 99 986.6
20260906070502 0 225 1.0 2.0 0.00 0.00 0.00 99 986.6
20260906070001 0 225 1.0 2.0 0.00 0.00 0.00 99 986.6
20260906065501 0 180 1.0 2.0 0.00 0.00 0.00 99 986.6
20260906065000 0 225 1.0 2.0 0.00 0.00 0.00 99 986.6
20260906064000 0 180 1.0 2.0 0.00 0.00 0.00 99 986.6
20260906063459 0 225 1.0 2.0 0.00 0.00 0.00 99 986.6
20260906062959 0 135 1.0 2.0 0.00 0.00 0.00 99 986.6
20260906062459 0 180 1.0 2.0 0.00 0.00 0.00 99 986.6
20260906061958 0 180 1.0 2.0 0.00 0.00 0.00 99 986.6
20260906061458 0 180 1.0 2.0 0.00 0.00 0.00 99 986.6
20260906060958 0 180 1.0 2.0 0.00 0.00 0.00 99 986.6
20260906060457 0 225 1.0 2.0 0.00 0.00 0.00 99 986.6
20260906055957 0 225 1.0 2.0 0.00 0.00 0.00 99 986.6
20260906055456 0 225 1.0 2.0 0.00 0.00 0.00 99 986.6
20260906054956 0 275 2.0 2.0 0.00 0.00 0.00 99 986.6
20260906054456 0 270 2.0 2.0 0.00 0.00 0.00 99 986.6
20260906053955 0 271 1.0 2.0 0.00 0.00 0.00 99 986.6
20260906053455 0 215 0.0 2.0 0.00 0.00 0.00 99 986.6
20260906052954 0 180 0.0 4.0 0.00 0.00 0.00 99 986.6
20260906052454 0 225 2.0 4.0 0.00 0.00 0.00 99 986.6
20260906051954 0 225 0.0 4.0 0.00 0.00 0.00 99 986.6
20260906051453 0 225 0.0 4.0 0.00 0.00 0.00 99 986.6
20260906050453 0 165 1.0 4.0 0.00 0.00 0.00 99 986.6
20260906045952 0 180 1.0 4.0 0.00 0.00 0.00 99 986.6
20260906045452 0 180 1.0 4.0 0.00 0.00 0.00 99 986.6
20260906044951 0 180 1.0 4.0 0.00 0.00 0.00 99 986.6
20260906044451 0 180 0.0 4.0 0.00 0.00 0.00 99 985.6
20260906043951 0 180 1.0 4.0 0.00 0.00 0.00 99 985.6
20260906043450 0 270 2.0 4.0 0.00 0.00 0.00 99 985.6
20260906042450 0 225 1.0 6.0 0.00 0.00 0.00 99 985.6
20260906041949 0 225 2.0 6.0 0.00 0.00 0.00 99 985.6
20260906041449 0 225 1.0 6.0 0.00 0.00 0.00 99 985.6
20260906040949 0 225 1.0 6.0 0.00 0.00 0.00 99 985.6
20260906040448 0 225 1.0 6.0 0.00 0.00 0.00 99 985.6
20260906035948 0 225 1.0 6.0 0.00 0.00 0.00 99 985.6
20260906035447 0 270 1.0 6.0 0.00 0.00 0.00 99 985.6
20260906034947 0 225 1.0 6.0 0.00 0.00 0.00 99 985.6
20260906034447 0 270 1.0 6.0 0.00 0.00 0.00 99 985.6
20260906033946 0 225 2.0 6.0 0.00 0.00 0.00 99 985.6
20260906032945 0 225 2.0 6.0 0.00 0.00 0.00 99 985.6
20260906032445 0 270 2.0 4.0 0.00 0.00 0.00 99 985.6
20260906031945 0 270 2.0 7.0 0.00 0.00 0.00 99 985.6
20260906031444 0 225 3.0 7.0 0.00 0.00 0.00 99 985.6
20260906030944 0 225 1.0 7.0 0.00 0.00 0.00 99 985.6
20260906030444 0 270 1.0 7.0 0.00 0.00 0.00 99 985.6
20260906025943 0 315 1.0 7.0 0.00 0.00 0.00 99 985.6
20260906025443 0 180 1.0 7.0 0.00 0.00 0.00 99 985.6
20260906024942 0 180 2.0 7.0 0.00 0.00 0.00 99 985.6
20260906024442 0 270 3.0 7.0 0.00 0.00 0.00 99 985.6
20260906023942 0 270 2.0 7.0 0.00 0.00 0.00 99 985.6
20260906023441 0 180 3.0 7.0 0.00 0.00 0.00 99 985.6
20260906022941 0 135 2.0 7.0 0.00 0.00 0.00 99 984.6
20260906022441 0 225 4.0 7.0 0.00 0.00 0.00 99 985.6
20260906021940 0 225 3.0 5.0 0.00 0.00 0.00 99 985.6
20260906021440 0 225 2.0 5.0 0.00 0.00 0.00 99 985.6
20260906020939 0 225 2.0 5.0 0.00 0.00 0.00 99 985.6
20260906020439 0 180 2.0 4.0 0.00 0.00 0.00 99 985.6
20260906015438 0 180 3.0 4.0 0.00 0.00 0.00 99 985.6
20260906014938 0 180 1.0 4.0 0.00 0.00 0.00 99 984.6
20260906014437 0 315 0.0 0.0 0.00 0.00 0.00 99 984.6
20260906013937 0 225 2.0 7.0 0.00 0.00 0.00 99 984.6
20260906012936 0 225 3.0 7.0 0.00 0.00 0.00 99 984.6
20260906012436 0 225 3.0 7.0 0.00 0.00 0.00 99 984.6
20260906011435 0 270 2.0 7.0 0.00 0.00 0.00 99 984.6
20260906010935 0 225 1.0 7.0 0.00 0.00 0.00 99 984.6
20260906010434 0 270 1.0 7.0 0.00 0.00 0.00 99 983.6
20260906005934 0 180 1.0 7.0 0.00 0.00 0.00 99 983.6
20260906005433 0 225 2.0 7.0 0.00 0.00 0.00 99 983.6
20260906004934 0 270 2.0 7.0 0.00 0.00 0.00 99 983.6
20260906004433 0 180 5.0 7.0 0.00 0.00 0.00 99 983.6
20260906003932 0 225 2.0 7.0 0.00 0.00 0.00 96 983.6
20260906003432 0 180 3.0 7.0 0.00 0.00 0.00 97 983.6
20260906002931 0 180 1.0 3.0 0.00 0.00 0.00 99 983.6
20260906002431 0 180 1.0 3.0 0.00 0.00 0.00 99 983.6
20260906001931 0 180 2.0 3.0 0.00 0.00 0.00 99 983.6
20260906001430 0 180 1.0 2.0 0.00 0.00 0.00 99 983.6
20260906000930 0 180 1.0 2.0 0.00 0.00 0.00 99 983.6
20260906000430 0 135 1.0 2.0 0.00 0.00 0.00 97 983.6
20260905235929 0 180 1.0 1.0 0.00 0.00 0.00 96 983.6
20260905235429 0 135 1.0 3.0 0.00 0.00 0.00 94 983.6
20260905234929 0 180 1.0 3.0 0.00 0.00 0.00 93 983.6
20260905234428 0 225 0.0 3.0 0.00 0.00 0.00 92 983.6
20260905233927 0 180 1.0 3.0 0.00 0.00 0.00 91 983.6
20260905233427 0 180 1.0 3.0 0.00 0.00 0.00 89 983.6
20260905232927 0 180 1.0 3.0 0.00 0.00 0.00 87 983.6
20260905232426 0 225 0.0 3.0 0.00 0.00 0.00 86 983.6
20260905231926 0 180 1.0 3.0 0.00 0.00 0.00 86 983.6
20260905231426 0 180 1.0 3.0 0.00 0.00 0.00 84 983.6
20260905230925 0 225 1.0 3.0 0.00 0.00 0.00 84 983.6
20260905230425 0 180 1.0 3.0 0.00 0.00 0.00 84 983.6
20260905225925 0 180 1.0 3.0 0.00 0.00 0.00 80 983.6
20260905225424 0 135 1.0 2.0 0.00 0.00 0.00 78 983.6
20260905224924 0 180 1.0 2.0 0.00 0.00 0.00 79 983.6
20260905224423 0 180 1.0 2.0 0.00 0.00 0.00 79 983.6
20260905223923 0 225 1.0 2.0 0.00 0.00 0.00 78 983.6
20260905223422 0 315 0.0 2.0 0.00 0.00 0.00 76 983.6
20260905222922 0 270 1.0 2.0 0.00 0.00 0.00 78 983.6
20260905222422 0 315 1.0 2.0 0.00 0.00 0.00 78 983.6
20260905221921 0 315 1.0 2.0 0.00 0.00 0.00 72 983.6
20260905221421 0 315 1.0 2.0 0.00 0.00 0.00 77 983.6
20260905220920 0 430 1.0 9.0 0.00 0.00 0.00 82 983.6
20260905220420 0 315 1.0 9.0 0.00 0.00 0.00 86 983.6
20260905215919 0 315 2.0 9.0 0.00 0.00 0.00 85 983.6
20260905215419 0 315 1.0 9.0 0.00 0.00 0.00 81 983.6
20260905214918 0 315 1.0 9.0 0.00 0.00 0.00 84 983.6
20260905212917 0 315 1.0 9.0 0.00 0.00 0.00 84 982.6
20260905212416 0 270 2.0 9.0 0.00 0.00 0.00 78 982.6
20260905211916 0 135 1.0 9.0 0.00 0.00 0.00 75 982.6
20260905211415 0 225 4.0 9.0 0.00 0.00 0.00 71 982.6
20260905210915 0 165 3.0 5.0 0.00 0.00 0.00 60 982.6
20260905210414 100 135 2.0 5.0 0.00 0.00 0.00 47 982.6
20260905205914 0 315 0.0 5.0 0.00 0.00 0.00 53 982.6
20260905204913 0 135 2.0 5.0 0.00 0.00 0.00 48 982.6
20260905204413 0 135 2.0 5.0 0.00 0.00 0.00 50 982.6
20260905203412 0 180 3.0 5.0 0.00 0.00 0.00 56 982.6
20260905200909 0 180 1.0 4.0 0.00 0.00 0.00 49 983.6
20260905194908 0 135 2.0 6.0 0.00 0.00 0.00 57 983.6
20260905193907 0 135 1.0 6.0 0.00 0.00 0.00 59 983.6
20260905193406 0 165 2.0 6.0 0.00 0.00 0.00 64 983.6
20260905191905 0 135 1.0 6.0 0.00 0.00 0.00 69 983.6
20260905191405 0 165 1.0 6.0 0.00 0.00 0.00 65 983.6
20260905190904 0 135 3.0 6.0 0.00 0.00 0.00 64 983.6
20260905190404 0 135 2.0 6.0 0.00 0.00 0.00 64 983.6
20260905185403 0 180 2.0 6.0 0.00 0.00 0.00 53 983.6
20260905183902 0 135 3.0 6.0 0.00 0.00 0.00 54 983.6
20260905183401 0 135 2.0 6.0 0.00 0.00 0.00 52 983.6
20260905182901 0 135 1.0 6.0 0.00 0.00 0.00 54 984.6
20260905181900 0 180 2.0 6.0 0.00 0.00 0.00 55 984.6
20260905163851 0 870 2.0 5.0 0.00 0.00 0.00 68 985.6
20260905161849 0 869 4.0 7.0 0.00 0.00 0.00 63 985.6
20260905145842 0 315 2.0 5.0 0.00 0.00 0.00 74 985.6
20260905124831 0 315 2.0 8.0 0.00 0.00 0.00 97 985.6
20260905123830 0 429 3.0 6.0 0.00 0.00 0.00 99 985.6
20260905122829 0 315 4.0 6.0 0.00 0.00 0.00 99 985.6
20260905121329 0 315 3.0 4.0 0.00 0.00 0.00 99 985.6
20260905115827 0 315 1.0 6.0 0.00 0.00 0.00 99 985.6
20260905114826 0 315 2.0 6.0 0.00 0.00 0.00 99 985.6
20260905114326 0 315 2.0 6.0 0.00 0.00 0.00 99 985.6
20260905113826 0 315 1.0 6.0 0.00 0.00 0.00 99 985.6
20260905113325 0 315 2.0 6.0 0.00 0.00 0.00 99 985.6
20260905112825 0 315 2.0 6.0 0.00 0.00 0.00 99 985.6
20260905112325 0 315 3.0 6.0 0.00 0.00 0.00 99 985.6
20260905111824 0 315 3.0 6.0 0.00 0.00 0.00 99 984.6
20260905111324 0 315 2.0 6.0 0.00 0.00 0.00 99 984.6
20260905110823 0 315 5.0 5.0 0.00 0.00 0.00 99 984.6
20260905110323 0 427 4.0 8.0 0.00 0.00 0.00 99 984.6
20260905105822 0 315 3.0 8.0 0.00 0.00 0.00 99 984.6
20260905104822 0 315 4.0 8.0 0.00 0.00 0.00 99 984.6
20260905104321 0 315 3.0 8.0 0.00 0.00 0.00 99 984.6
20260905103821 0 315 5.0 8.0 0.00 0.00 0.00 99 985.6
20260905103321 0 270 2.0 8.0 0.00 0.00 0.00 99 985.6
20260905102820 0 211 1.0 8.0 0.00 0.00 0.00 99 985.6
20260905102320 0 315 2.0 8.0 0.00 0.00 0.00 99 985.6
20260905101819 0 271 3.0 8.0 0.00 0.00 0.00 99 985.6
20260905101319 0 270 2.0 8.0 0.00 0.00 0.00 99 985.6
20260905100819 0 270 2.0 8.0 0.00 0.00 0.00 99 985.6
20260905100318 0 270 3.0 6.0 0.00 0.00 0.00 99 984.6
20260905095818 0 225 3.0 5.0 0.00 0.00 0.00 99 984.6
20260905095318 0 315 1.0 2.0 0.00 0.00 0.00 99 984.6
20260905084311 0 180 1.0 1.0 0.00 0.00 0.00 99 983.6
20260905081809 0 135 0.0 3.0 0.00 0.00 0.00 99 983.6
20260905081309 0 135 1.0 3.0 0.00 0.00 0.00 99 983.6
20260905075808 0 315 0.0 3.0 0.00 0.00 0.00 99 983.6